Regional Weather Roundup
Issued by NWS Boston, MA

Home | Current Version | Previous Version | Text Only | Print | Product List | Glossary On
Versions: 1 2 3 4 5 6 7 8 9 10 11 12 13 14 15 16 17 18 19 20 21 22 23 24 25 26 27 28 29 30 31 32 33 34 35 36 37 38 39 40 41 42 43 44 45 46 47 48 49 50
000
ASUS41 KBOX 292110
RWRBOX

REGIONAL WEATHER ROUNDUP
NATIONAL WEATHER SERVICE TAUNTON MA
500 PM EDT TUE JUL 29 2014

NOTE:  "FAIR" INDICATES FEW OR NO CLOUDS BELOW 12,000 FEET WITH NO
SIGNIFICANT WEATHER AND/OR OBSTRUCTIONS TO VISIBILITY.  THE FOLLOWING
OBSERVATION LOCATIONS DO NOT REPORT PRESENT WEATHER...PROVINCETOWN...
SMITHFIELD...BLOCK ISLAND...KEENE...AND OXFORD.

MAZALL-292200-
EASTERN MASSACHUSETTS

CITY           SKY/WX    TMP DP  RH WIND       PRES   REMARKS
BOSTON         PTSUNNY   72  59  63 SE7       29.85R
BEVERLY        CLOUDY    73  58  59 S8        29.85R
LAWRENCE       CLOUDY    75  58  55 N5        29.87R
BEDFORD        CLOUDY    74  54  49 W9        29.85R
BLUE HILL        N/A     75  55  49 W12       29.86R
NORWOOD        MOSUNNY   77  55  46 W10       29.85R
MARSHFIELD     MOSUNNY   73  59  60 E7        29.87R
PLYMOUTH       PTSUNNY   75  61  61 S8G17     29.86R
TAUNTON        CLOUDY    77  59  53 VRB5      29.85R
NEW BEDFORD    SUNNY     76  59  55 S15       29.86R
$$

MAZALL-292200-
CAPE COD AND THE ISLANDS

CITY           SKY/WX    TMP DP  RH WIND       PRES   REMARKS
FALMOUTH       SUNNY     75  61  60 SW15      29.87R
HYANNIS        SUNNY     74  61  63 S13       29.86R
CHATHAM        SUNNY     73  61  65 VRB7G22   29.88R
PROVINCETOWN   MOSUNNY   75  63  64 CALM      29.86S
NANTUCKET      SUNNY     69  62  78 SW10      29.89R
MARTHAS VNYRD  SUNNY     71  61  70 SW12      29.88R
$$

MAZALL-292200-
CENTRAL AND WESTERN MASSACHUSETTS

CITY           SKY/WX    TMP DP  RH WIND       PRES   REMARKS
WORCESTER      PTSUNNY   70  53  54 W8        29.90R
FITCHBURG      MOSUNNY   76  53  44 NW9       29.88R
ORANGE         PTSUNNY   73  52  47 W8        29.88R
SPRINGFIELD    PTSUNNY   73  52  46 NW9       29.88R
WESTFIELD      MOSUNNY   75  49  39 W8        29.88R
NORTH ADAMS    CLOUDY    68  54  60 CALM      29.90R
PITTSFIELD     MOSUNNY   69  50  50 W13       29.91R
$$

RIZALL-292200-
RHODE ISLAND

CITY           SKY/WX    TMP DP  RH WIND       PRES   REMARKS
PROVIDENCE     MOSUNNY   77  53  43 W12       29.87R
NEWPORT        SUNNY     75  58  55 VRB7      29.87R
BLOCK ISLAND   SUNNY     75  55  50 W10       29.90R
SMITHFIELD     PTSUNNY   72  52  49 W6        29.87R
WESTERLY       MOSUNNY   76  56  49 SW7       29.89R
$$

CTZALL-292200-
CONNECTICUT

CITY           SKY/WX    TMP DP  RH WIND       PRES   REMARKS
BRADLEY INTL   PTSUNNY   74  49  41 NW8       29.88R
HARTFORD       CLOUDY    74  48  39 W6        29.88R
BRIDGEPORT     MOSUNNY   76  56  49 SW13      29.89R
DANBURY        CLOUDY    72  50  45 VRB5      29.91R
GROTON         SUNNY     71  59  65 SW12      29.88R
NEW HAVEN      PTSUNNY   75  57  53 SW6       29.89R
CHESTER        FAIR      73  57  56 W5        29.90R
MERIDEN        CLOUDY    74  50  42 W7        29.89R
WILLIMANTIC    PTSUNNY   74  52  46 NW7       29.89R
OXFORD         PTSUNNY   70  54  56 NW3       29.93R
$$

MEZ002-015-021-024-NHZ003-005-008-011-012-014-VTZ005-008-292200-
NORTHERN NEW ENGLAND

CITY           SKY/WX    TMP DP  RH WIND       PRES   REMARKS
PORTLAND ME    MOSUNNY   73  59  61 SE9       29.84R
BANGOR ME      PTSUNNY   73  55  53 W6        29.84R
CONCORD NH     SUNNY     74  49  41 W8        29.86R
MANCHESTER NH  MOSUNNY   75  50  41 NW7       29.84R
NASHUA NH      PTSUNNY   75  51  42 NW7       29.86R
PORTSMOUTH NH  MOSUNNY   76  55  47 NW7       29.84R
JAFFREY NH     SUNNY     71  48  43 W7        29.89R
KEENE NH       PTSUNNY   72  48  43 CALM      29.88R
BURLINGTON VT  MOSUNNY   71  50  47 N8        29.88R
MT. WASHINGTON CLOUDY    46  41  81 W7          N/A
$$

NYZ052-076-292200-
EASTERN NEW YORK

CITY           SKY/WX    TMP DP  RH WIND       PRES   REMARKS
ALBANY         MOSUNNY   73  53  49 W10       29.89R
NEW YORK CITY  MOSUNNY   75  51  43 NW9       29.89R
$$

ANZALL-292200-
MARINE OBSERVATIONS

STATION/POSITION TIME  TEMP    WIND        PRES    VSBY  WAVE
                       AIR SEA DIR/SP/G                  HT/PER
                 (UTC) (F)     (DEG/KT/KT) (MB)    (MI)  (FT/S)
BOSTON BUOY      NOT AVBL
BUZZARDS BAY     NOT AVBL
NANTUCKET SOUND  NOT AVBL
MASS BAY-STELLWA NOT AVBL
ISLE OF SHOALS   NOT AVBL
S OF BLOCK IS    NOT AVBL
$$

......................KEY.........................
  SKY/WX - SKY CONDITION/PRESENT WEATHER
  TMP    - TEMPERATURE IN FAHRENHEIT
  DWPT   - DEWPOINT IN FAHRENHEIT
  RH     - RELATIVE HUMIDITY IN PERCENT
  WIND   - DIRECTION AND SPEED IN MPH
  PRES   - MEAN SEA LEVEL PRESSURE IN INCHES OF HG
  WCI    - WIND CHILL INDEX
  VSB    - VISIBILITY IN MILES
  HX     - HEAT INDEX
  TC     - TEMPERATURE IN CELSIUS
  VRB    - VARIABLE WIND DIRECTION
  N/A    - NOT AVAILABLE


USA.gov is the U.S. government's official web portal to all federal, state and local government web resources and services.